• In Belarus
  • List of Countries
  • For 7 days
  • Water Temperature
  • Weather Map
  • Weather Widgets
  • user-avatar
    Login

    Hourly Weather Pryvillya

    Today, 26 May, Tuesday

    Time Temperature Precipitation Wind Pressure Humidity
    00:00 +11°C° 0.1 mm 3 mps 750 mmHg 82%
    01:00 +11°C° 0.1 mm 3 mps 750 mmHg 86%
    02:00 +10°C° 0.1 mm 3 mps 750 mmHg 91%
    03:00 +10°C° 0.5 mm 3 mps 750 mmHg 92%
    04:00 +10°C° 0.5 mm 3 mps 750 mmHg 93%
    05:00 +10°C° 0.5 mm 4 mps 750 mmHg 94%
    06:00 +10°C° 0.7 mm 4 mps 750 mmHg 94%
    07:00 +10°C° 0.7 mm 4 mps 750 mmHg 94%
    08:00 +10°C° 0.7 mm 4 mps 750 mmHg 94%
    09:00 +10°C° 0.5 mm 4 mps 750 mmHg 94%
    10:00 +11°C° 0.5 mm 4 mps 750 mmHg 94%
    11:00 +11°C° 0.5 mm 4 mps 750 mmHg 94%
    12:00 +11°C° 0.2 mm 4 mps 749 mmHg 93%
    13:00 +11°C° 0.2 mm 4 mps 749 mmHg 92%
    14:00 +12°C° 0.2 mm 4 mps 749 mmHg 90%
    15:00 +12°C° 0 mm 4 mps 749 mmHg 89%
    16:00 +12°C° 0 mm 4 mps 749 mmHg 88%
    17:00 +13°C° 0 mm 4 mps 749 mmHg 87%
    18:00 +12°C° 0 mm 4 mps 749 mmHg 89%
    19:00 +11°C° 0 mm 4 mps 749 mmHg 91%
    20:00 +11°C° 0 mm 3 mps 749 mmHg 93%
    21:00 +10°C° 0 mm 3 mps 749 mmHg 94%
    22:00 +10°C° 0 mm 3 mps 749 mmHg 94%
    23:00 +10°C° 0 mm 4 mps 749 mmHg 95%

    Tomorrow, 27 May, Wednesday

    Time Temperature Precipitation Wind Pressure Humidity
    00:00 +10°C° 0 mm 4 mps 749 mmHg 95%
    01:00 +10°C° 0 mm 3 mps 749 mmHg 95%
    02:00 +9°C° 0 mm 3 mps 749 mmHg 95%
    03:00 +10°C° 0 mm 3 mps 749 mmHg 94%
    04:00 +10°C° 0 mm 3 mps 749 mmHg 94%
    05:00 +10°C° 0 mm 3 mps 749 mmHg 94%
    06:00 +12°C° 0 mm 3 mps 750 mmHg 89%
    07:00 +13°C° 0 mm 3 mps 750 mmHg 85%
    08:00 +14°C° 0 mm 3 mps 750 mmHg 80%
    09:00 +16°C° 0.1 mm 3 mps 750 mmHg 76%
    10:00 +17°C° 0.1 mm 3 mps 750 mmHg 71%
    11:00 +18°C° 0.1 mm 4 mps 750 mmHg 66%
    12:00 +19°C° 0.1 mm 4 mps 750 mmHg 65%
    13:00 +19°C° 0.1 mm 4 mps 750 mmHg 63%
    14:00 +19°C° 0.1 mm 4 mps 749 mmHg 62%
    15:00 +18°C° 0.1 mm 4 mps 749 mmHg 67%
    16:00 +17°C° 0.1 mm 4 mps 749 mmHg 72%
    17:00 +16°C° 0.1 mm 3 mps 749 mmHg 77%
    18:00 +14°C° 0.1 mm 3 mps 749 mmHg 80%
    19:00 +13°C° 0.1 mm 3 mps 749 mmHg 84%
    20:00 +13°C° 0.1 mm 2 mps 749 mmHg 87%
    21:00 +13°C° 0.2 mm 2 mps 749 mmHg 89%
    22:00 +13°C° 0.2 mm 2 mps 748 mmHg 91%
    23:00 +13°C° 0.2 mm 2 mps 748 mmHg 92%

    Day after tomorrow, 28 May, Thursday

    Time Temperature Precipitation Wind Pressure Humidity
    00:00 +12°C° 0.2 mm 3 mps 748 mmHg 93%
    01:00 +12°C° 0.2 mm 3 mps 747 mmHg 94%
    02:00 +12°C° 0.2 mm 4 mps 747 mmHg 95%
    03:00 +12°C° 0.9 mm 3 mps 746 mmHg 96%
    04:00 +13°C° 0.9 mm 3 mps 746 mmHg 97%
    05:00 +13°C° 0.9 mm 3 mps 745 mmHg 97%
    06:00 +14°C° 0.9 mm 3 mps 745 mmHg 95%
    07:00 +16°C° 0.9 mm 3 mps 745 mmHg 92%
    08:00 +16°C° 0.9 mm 3 mps 745 mmHg 90%
    09:00 +18°C° 0.8 mm 3 mps 744 mmHg 84%
    10:00 +19°C° 0.8 mm 3 mps 744 mmHg 79%
    11:00 +20°C° 0.8 mm 2 mps 744 mmHg 74%
    12:00 +20°C° 0.4 mm 3 mps 743 mmHg 75%
    13:00 +21°C° 0.4 mm 3 mps 743 mmHg 76%
    14:00 +21°C° 0.4 mm 3 mps 742 mmHg 77%
    15:00 +21°C° 0.6 mm 3 mps 742 mmHg 79%
    16:00 +21°C° 0.6 mm 3 mps 742 mmHg 80%
    17:00 +21°C° 0.6 mm 3 mps 741 mmHg 81%
    18:00 +20°C° 0.1 mm 3 mps 742 mmHg 86%
    19:00 +18°C° 0.1 mm 3 mps 742 mmHg 90%
    20:00 +17°C° 0.1 mm 3 mps 742 mmHg 95%
    21:00 +16°C° 0 mm 2 mps 742 mmHg 95%
    22:00 +15°C° 0 mm 1 mps 742 mmHg 96%
    23:00 +14°C° 0 mm 1 mps 742 mmHg 97%

    29 May, Friday

    Time Temperature Precipitation Wind Pressure Humidity
    00:00 +14°C° 0 mm 1 mps 742 mmHg 97%
    01:00 +14°C° 0 mm 1 mps 742 mmHg 97%
    02:00 +14°C° 0 mm 1 mps 742 mmHg 97%
    03:00 +14°C° 0 mm 1 mps 742 mmHg 97%
    04:00 +14°C° 0 mm 1 mps 743 mmHg 96%
    05:00 +15°C° 0 mm 1 mps 743 mmHg 96%
    06:00 +16°C° 0 mm 1 mps 743 mmHg 91%
    07:00 +18°C° 0 mm 1 mps 743 mmHg 87%
    08:00 +19°C° 0 mm 1 mps 743 mmHg 82%
    09:00 +20°C° 0 mm 1 mps 743 mmHg 77%
    10:00 +21°C° 0 mm 1 mps 743 mmHg 71%
    11:00 +23°C° 0 mm 1 mps 743 mmHg 65%
    12:00 +23°C° 0.1 mm 1 mps 743 mmHg 63%
    13:00 +23°C° 0.1 mm 1 mps 743 mmHg 61%
    14:00 +24°C° 0.1 mm 1 mps 742 mmHg 59%
    15:00 +23°C° 0 mm 1 mps 742 mmHg 62%
    16:00 +23°C° 0 mm 1 mps 742 mmHg 64%
    17:00 +23°C° 0 mm 1 mps 742 mmHg 67%
    18:00 +20°C° 0 mm 2 mps 742 mmHg 72%
    19:00 +19°C° 0 mm 2 mps 742 mmHg 78%
    20:00 +18°C° 0 mm 2 mps 742 mmHg 83%
    21:00 +17°C° 0.7 mm 2 mps 741 mmHg 86%
    22:00 +17°C° 0.7 mm 2 mps 741 mmHg 88%
    23:00 +17°C° 0.7 mm 2 mps 741 mmHg 90%

    30 May, Saturday

    Time Temperature Precipitation Wind Pressure Humidity
    00:00 +16°C° 1.8 mm 3 mps 740 mmHg 93%
    01:00 +16°C° 1.8 mm 3 mps 740 mmHg 95%
    02:00 +15°C° 1.8 mm 4 mps 739 mmHg 97%
    03:00 +15°C° 3.3 mm 4 mps 739 mmHg 97%
    04:00 +15°C° 3.3 mm 4 mps 739 mmHg 97%
    05:00 +15°C° 3.3 mm 4 mps 739 mmHg 97%
    06:00 +15°C° 1.9 mm 5 mps 738 mmHg 96%
    07:00 +15°C° 1.9 mm 5 mps 738 mmHg 95%
    08:00 +16°C° 1.9 mm 5 mps 738 mmHg 94%
    09:00 +16°C° 0.2 mm 5 mps 738 mmHg 92%
    10:00 +16°C° 0.2 mm 5 mps 738 mmHg 91%
    11:00 +17°C° 0.2 mm 5 mps 738 mmHg 89%
    12:00 +16°C° 0.4 mm 6 mps 738 mmHg 89%
    13:00 +16°C° 0.4 mm 6 mps 738 mmHg 89%
    14:00 +16°C° 0.4 mm 7 mps 738 mmHg 89%
    15:00 +15°C° 0.2 mm 7 mps 738 mmHg 90%
    16:00 +15°C° 0.2 mm 7 mps 738 mmHg 90%
    17:00 +14°C° 0.2 mm 7 mps 738 mmHg 91%
    18:00 +13°C° 0.5 mm 8 mps 738 mmHg 92%
    19:00 +12°C° 0.5 mm 8 mps 738 mmHg 93%
    20:00 +12°C° 0.5 mm 8 mps 739 mmHg 93%
    21:00 +12°C° 0.4 mm 7 mps 739 mmHg 93%
    22:00 +12°C° 0.4 mm 7 mps 739 mmHg 93%
    23:00 +12°C° 0.4 mm 7 mps 739 mmHg 92%

    31 May, Sunday

    Time Temperature Precipitation Wind Pressure Humidity
    00:00 +12°C° 0 mm 7 mps 739 mmHg 91%
    01:00 +12°C° 0 mm 7 mps 738 mmHg 90%
    02:00 +12°C° 0 mm 7 mps 738 mmHg 90%
    03:00 +12°C° 0 mm 7 mps 739 mmHg 89%
    04:00 +12°C° 0 mm 7 mps 739 mmHg 89%
    05:00 +12°C° 0 mm 8 mps 739 mmHg 88%
    06:00 +13°C° 0 mm 8 mps 739 mmHg 85%
    07:00 +15°C° 0 mm 9 mps 739 mmHg 81%
    08:00 +15°C° 0 mm 9 mps 740 mmHg 77%
    09:00 +17°C° 0.1 mm 9 mps 740 mmHg 73%
    10:00 +18°C° 0.1 mm 9 mps 740 mmHg 69%
    11:00 +19°C° 0.1 mm 9 mps 741 mmHg 65%
    12:00 +19°C° 0.5 mm 9 mps 741 mmHg 67%
    13:00 +21°C° 0.5 mm 9 mps 741 mmHg 68%
    14:00 +21°C° 0.5 mm 9 mps 741 mmHg 69%
    15:00 +20°C° 0.6 mm 8 mps 741 mmHg 72%
    16:00 +20°C° 0.6 mm 7 mps 741 mmHg 74%
    17:00 +18°C° 0.6 mm 7 mps 741 mmHg 77%
    18:00 +17°C° 0.4 mm 6 mps 741 mmHg 80%
    19:00 +16°C° 0.4 mm 6 mps 741 mmHg 83%
    20:00 +15°C° 0.4 mm 5 mps 741 mmHg 87%
    21:00 +14°C° 0.1 mm 5 mps 742 mmHg 88%
    22:00 +14°C° 0.1 mm 5 mps 742 mmHg 90%
    23:00 +13°C° 0.1 mm 5 mps 742 mmHg 91%
    Show more